Notices

What's New in latest Release from April 7th, 2021:

- Updated Glossary, including Speed of Maximum Gust, and Total Hourly Precipitation

- Updated national and regional climate services offices contacts and prices information

- Addition of station inventory lists for 1981-2010, 1971-2000, and 1961-1990 Normals.

If you haven't already, please take our survey and provide feedback about our website: https://eccc.sondage-survey.ca/f/LanguageSelection.aspx?s=442ca660-fcf1-47c0-95a9-59707d6fd709

Hourly Data Report for December 16, 2019

EUREKA CLIMATE
NUNAVUT
Current Station Operator: ECCC - MSC

79°59'21.000" N
85°56'02.000" W
10.00 m
2401199
71613
NEK

Download Data

Hourly Data (December 2019)
Hourly Data Report for December 16, 2019
TIME
LST
Temp Definition
°C
Dew Point Definition
°C
Rel Hum Definition
%
Precip. Amount Definition
mm

Wind Dir Definition
10's deg

Wind Spd Definition
km/h
Visibility Definition
km
Stn Press Definition
kPa
Hmdx Definition


Wind Chill Definition


Weather Definition


00:00 -31.5 -34.5 74 0.0   0   102.36     LegendNANA
01:00 -31.5 -34.6 74 0.0 1 3   102.37   -35 LegendNANA
02:00 -32.5 -35.7 73 0.0 11 12   102.41   -43 LegendNANA
03:00 -32.2 -35.4 73 0.0 0 1   102.41   -33 LegendNANA
04:00 -32.3 -35.5 73 0.0 11 7   102.39   -40 LegendNANA
05:00 -31.6 -34.7 74 0.0 11 6   102.37   -38 LegendNANA
06:00 -32.3 -35.5 73 0.0 11 4   102.38   -37 LegendNANA
07:00 -32.5 -35.7 73 0.0 11 6   102.35   -39 LegendNANA
08:00 -32.2 -35.3 74 0.0 12 11   102.34   -42 LegendNANA
09:00 -31.0 -33.9 75 0.0 10 2   102.33   -33 LegendNANA
10:00 -31.3 -34.4 74 0.0 12 6   102.34   -38 LegendNANA
11:00 -30.5 -33.4 75 0.0 10 9   102.31   -39 LegendNANA
12:00 -31.5 -34.6 74 0.0 8 4   102.31   -36 LegendNANA
13:00 -31.1 -34.1 75 0.0 12 6   102.31   -38 LegendNANA
14:00 -30.7 -33.8 74 0.0 6 9   102.32   -39 LegendNANA
15:00 -30.6 -33.7 74 0.0 11 9   102.34   -39 LegendNANA
16:00 -31.2 -34.3 75 0.0 6 3   102.34   -35 LegendNANA
17:00 -31.7 -34.8 74 0.0 14 3   102.39   -35 LegendNANA
18:00 -30.9 -33.9 75 0.0 11 4   102.36   -35 LegendNANA
19:00 -31.7 -34.8 74 0.0 12 4   102.35   -36 LegendNANA
20:00 -30.9 -33.9 75 0.0 10 10   102.38   -40 LegendNANA
21:00 -31.6 -34.6 75 0.0 3 6   102.38   -38 LegendNANA
22:00 -31.7 -34.8 74 0.0 10 5   102.40   -38 LegendNANA
23:00 -31.4 -34.4 75 0.0 8 2   102.39   -34 LegendNANA

Notes on Data Quality.

Legend

  • E = Estimated
  • M = Missing
  • NA = Not Available*
  • [empty] = Indicates an unobserved value
Date modified: